Tracking 19796 objects as of 19-Jul-2019
HD Live streaming from Space Station
objects crossing your sky now

LEMUR 2 NATE


LEMUR 2 NATE is no longer on orbit
LEMUR 2 NATE is classified as:


NORAD ID: 41598
Int'l Code: 2016-019E
Perigee: N/A
Apogee: N/A
Inclination: N/A
Period: N/A
Semi major axis: N/A
RCS: N/A
Launch date: March 23, 2016
Source: United States (US)
Launch site: ()
Decay date: 2017-02-27
aabbcc
Your satellite tracking list
Your tracking list is empty




NASA's NSSDC Master Catalog

Two Line Element Set (TLE):
1 41598U 16019E   17058.48104143  .13500253  12598-4  42079-3 0  9993
2 41598  51.6082 187.4528 0006461 311.7838  48.2638 16.44599812 39534
Source of the keplerian elements: AFSPC